User: anonymous
Location: Unspecified
(0.0000°N, 0.0000°E)
Time: 05:55:44
(UTC+02:00)
Language:

GP-B - Orbit

View from above orbital plane
View from above orbital plane
View from above satellite
View from above satellite

Ground track
Ground track

The orbit data is extracted from the following two-line orbital elements,

1 28230U 04014A   14114.47621222  .00000882  00000-0  12164-3 0   290
2 28230 089.8868 140.7458 0002048 100.8654 259.2798 14.77465153539261
Epoch (UTC): 24 April 2014 11:25:44
Eccentricity: 0.0002048
inclination: 89.8868°
perigee height: 636 km
apogee height: 639 km
right ascension of ascending node: 140.7458°
argument of perigee: 100.8654°
revolutions per day: 14.77465153
mean anomaly at epoch: 259.2798°
orbit number at epoch: 53926

The dashed part of the orbit path shows where the satellite is in the earth's shadow,  

DLR